Regional Weather Roundup
Issued by NWS

Home | Current Version | Previous Version | Graphics & Text | Print | Product List | Glossary On
Versions: 1 2 3 4 5 6 7 8 9 10 11 12 13 14 15 16 17 18 19 20 21 22 23 24 25 26 27 28 29 30 31 32 33 34 35 36 37 38 39 40 41 42 43 44 45 46 47 48 49 50
000
ASUS43 KOAX 190202
RWRNE

WEATHER ROUNDUP FOR NEBRASKA
NATIONAL WEATHER SERVICE OMAHA NE
900 PM CDT FRI AUG 18 2017

NOTES: SATELLITE DATA IS BEING USED TO AUGMENT CLOUD COVER ABOVE
       12000 FEET.
       "FAIR" INDICATES FEW OR NO CLOUDS BELOW 12,000 FEET WITH NO
       SIGNIFICANT WEATHER AND/OR OBSTRUCTIONS TO VISIBILITY.


NEZ001>004-019>022-054>056-190300-
NEBRASKA PANHANDLE

CITY           SKY/WX    TMP DP  RH WIND       PRES   REMARKS
SCOTTSBLUFF    CLEAR     76  48  37 S9        30.03S
ALLIANCE       CLEAR     67  54  63 S8        30.02S
CHADRON        CLEAR     72  51  47 SE7       29.98R
GORDON         FAIR      68  57  67 E3        30.02S
KIMBALL        CLEAR     70  51  49 SE7       30.11S
SIDNEY         CLEAR     70  48  45 SE9       30.09R
$$

NEZ057>060-069>072-079>082-190300-
SOUTHWEST NEBRASKA

CITY           SKY/WX    TMP DP  RH WIND       PRES   REMARKS
NORTH PLATTE   CLEAR     71  65  81 CALM      30.00R
IMPERIAL       CLEAR     72  56  57 SE6       30.04S
LEXINGTON      CLEAR     73  64  72 S7        29.99R
MCCOOK         CLEAR     75  56  51 S5        30.00S
OGALLALA       CLEAR     72  60  66 CALM      30.03R
$$

NEZ005>010-023>029-035>040-094-190300-
NORTH CENTRAL NEBRASKA

CITY           SKY/WX    TMP DP  RH WIND       PRES   REMARKS
VALENTINE      CLEAR     72  55  55 E7        30.00R
AINSWORTH      CLEAR     67  61  81 NE7       30.01S
BROKEN BOW     CLEAR     74  60  61 E3        29.99R
O`NEILL        CLEAR     70  60  70 N5        29.99R
ORD            CLEAR     71  57  61 NE6       29.97R
THEDFORD       CLEAR     72  60  65 E8        30.02R
$$

NEZ041-046>049-061>064-073>077-083>087-190300-
SOUTH CENTRAL NEBRASKA

CITY           SKY/WX    TMP DP  RH WIND       PRES   REMARKS
GRAND ISLAND   CLEAR     74  66  76 SW7       29.96R
AURORA         CLEAR     74  67  80 CALM      29.95R
HASTINGS       CLEAR     77  63  61 S5        29.98R
HEBRON         CLEAR     73  67  83 SW3       29.95R
HOLDREGE       CLEAR     73  64  72 S6        29.99R
KEARNEY        CLEAR     72  67  84 SE5       29.98R
YORK           CLEAR     73  68  83 CALM      29.94S
$$

NEZ011>018-030>034-042>045-190300-
NORTHEAST NEBRASKA

CITY           SKY/WX    TMP DP  RH WIND       PRES   REMARKS
NORFOLK        CLEAR     71  63  75 NW7       29.94R
ALBION         PTCLDY    72  64  74 N5        29.97R
BLAIR          CLEAR     75  68  79 SW3       29.91R
COLUMBUS       CLEAR     72  68  87 NW5       29.95R
FREMONT        CLEAR     75  67  76 SW3       29.92R
TEKAMAH        CLEAR     72  69  90 CALM      29.89R
WAYNE          CLEAR     68  65  91 NW3       29.93R
$$

NEZ050>053-065>068-078-088>093-190300-
SOUTHEAST NEBRASKA

CITY           SKY/WX    TMP DP  RH WIND       PRES   REMARKS
LINCOLN        CLEAR     80  67  64 W3        29.92S
OMAHA EPPLEY   PTCLDY    80  64  58 CALM      29.89S
BEATRICE       LGT RAIN  75  67  77 CALM      29.93R
FALLS CITY     CLEAR     77  66  68 SE6       29.90S
NEBRASKA CITY  CLEAR     75  69  82 SW5       29.91S
PLATTSMOUTH    CLEAR     76  67  72 SW3       29.91S
$$

NEZ044-045-051>053-067-190300-
OMAHA AREA

CITY           SKY/WX    TMP DP  RH WIND       PRES   REMARKS
OMAHA EPPLEY   PTCLDY    80  64  58 CALM      29.89S
BLAIR          CLEAR     75  68  79 SW3       29.91R
FREMONT        CLEAR     75  67  76 SW3       29.92R
MILLARD        CLEAR     76  68  76 CALM      29.90S
OFFUTT AFB     CLEAR     73  65  76 CALM      29.89R
PLATTSMOUTH    CLEAR     76  67  72 SW3       29.91S
WAHOO          FAIR      74  68  80 CALM      29.92R
$$




USA.gov is the U.S. government's official web portal to all federal, state and local government web resources and services.